Weather reports worldwide

Advertisment
Biscarosse, France (7503): temperature & dewpoint: 08.12.2019 02:00:00 - 14.12.2019 02:00:00 (CET)Biscarosse, France (7503): temperature 5cm: 08.12.2019 02:00:00 - 14.12.2019 02:00:00 (CET)Biscarosse, France (7503): temperature -20cm & temperature -100cm: 08.12.2019 02:00:00 - 14.12.2019 02:00:00 (CET)Biscarosse, France (7503): wind speed & gusts: 08.12.2019 02:00:00 - 14.12.2019 02:00:00 (CET)Biscarosse, France (7503): wind direction: 08.12.2019 02:00:00 - 14.12.2019 02:00:00 (CET)Biscarosse, France (7503): reduced air pressure: 08.12.2019 02:00:00 - 14.12.2019 02:00:00 (CET)Biscarosse, France (7503): visibility: 08.12.2019 02:00:00 - 14.12.2019 02:00:00 (CET)Biscarosse, France (7503): sunshine duration: 08.12.2019 02:00:00 - 14.12.2019 02:00:00 (CET)Biscarosse, France (7503): precipitation: 08.12.2019 02:00:00 - 14.12.2019 02:00:00 (CET)
Date & Time tt [°C] td [°C] tt 5cm [°C] tt -20cm [°C] tt -100cm [°C] ff [km/h] ff [kn] fx [km/h] fx [kn] dd ppp [hPa] vv [km] sd [min] rr [mm]
14.12.2019 02:00:00 14,4 11,4 13,9 12,1 12,0 61 33 82 45 W 1009,3 7 0 0,0
14.12.2019 01:00:00 14,5 10,7 13,8 12,1 12,0 60 33 88 48 W 1008,9 7 0 0,0
14.12.2019 00:00:00 14,5 11,1 13,9 12,1 11,9 55 30 85 46 W 1008,7 7 0 0,0
13.12.2019 23:00:00 14,6 11,0 12,8 12,2 11,9 57 31 87 47 W 1008,1 7 0 0,0
13.12.2019 22:00:00 14,1 11,8 12,7 12,1 11,9 62 34 81 44 W 1008,1 4,6 0 0,0
13.12.2019 21:00:00 14,2 12,2 13,4 12,1 11,9 55 30 86 47 W 1007,8 4,8 0 0,0
13.12.2019 20:00:00 14,6 11,9 13,1 12,1 11,9 59 32 95 51 W 1007,4 6 0 0,0
13.12.2019 19:00:00 14,0 12,7 13,2 12,0 11,9 62 34 90 48 W 1006,2 4,6 0 0,2
13.12.2019 18:00:00 14,4 12,8 13,6 12,0 11,9 66 35 92 50 W 1005,8 4,5 0 0,0
13.12.2019 17:00:00 14,4 12,9 13,5 11,9 11,8 64 34 90 49 W 1005,2 4,5 0 0,0
13.12.2019 16:00:00 14,3 12,8 13,2 11,9 11,8 61 33 82 44 W 1005,0 6 0 0,0
13.12.2019 15:00:00 13,4 12,6 12,7 11,8 11,8 46 25 79 42 W 1005,3 3,6 0 0,0
13.12.2019 14:00:00 13,4 11,8 12,0 11,8 11,8 51 28 94 51 WNW 1005,3 6 0 0,0
13.12.2019 13:00:00 13,9 10,9 11,7 11,7 11,8 63 34 95 51 WNW 1005,2 6 0 0,8
13.12.2019 12:00:00 14,3 9,9 13,6 11,7 11,8 68 37 97 53 WNW 1004,4 7 0 0,0
13.12.2019 11:00:00 13,9 10,5 13,7 11,7 11,8 72 39 100 54 WNW 1004,0 7 0 0,0
13.12.2019 10:00:00 13,9 10,7 12,3 11,7 11,8 66 36 94 51 WNW 1002,1 7 3 0,0
13.12.2019 09:00:00 13,8 11,0 12,1 11,7 11,8 64 35 99 54 WNW 1001,0 7 0 0,0
13.12.2019 08:00:00 13,5 11,9 12,4 11,6 11,7 71 39 108 58 WNW 999,9 4,5 0 1,4
13.12.2019 07:00:00 14,3 12,3 13,1 11,6 11,7 82 44 125 67 W 998,7 4,4 0 0,4
13.12.2019 06:00:00 14,0 12,9 13,1 11,5 11,7 80 43 105 57 W 998,1 3,1 0 0,2
13.12.2019 05:00:00 14,1 12,8 13,2 11,4 11,7 77 42 112 60 W 997,8 4,1 0 0,0
13.12.2019 04:00:00 13,9 12,9 13,3 11,3 11,7 78 42 103 55 W 997,9 3,5 0 0,2
13.12.2019 03:00:00 14,1 13,0 13,3 11,3 11,7 71 39 105 57 W 998,1 6 0 0,0
13.12.2019 02:00:00 13,8 13,3 13,2 11,1 11,7 67 36 92 50 W 997,9 3,9 0 0,2
13.12.2019 01:00:00 13,8 13,0 13,2 11,0 11,7 66 36 93 50 W 999,0 4,1 0 0,8
13.12.2019 00:00:00 13,7 13,2 12,7 10,9 11,8 65 35 85 46 W 999,1 4,7 0 0,6
12.12.2019 23:00:00 13,1 12,6 12,4 10,8 11,8 45 25 71 38 W 999,8 2,6 0 0,8
12.12.2019 22:00:00 13,5 12,6 12,7 10,7 11,8 51 28 78 42 W 1000,0 4,4 0 0,2
12.12.2019 21:00:00 13,6 12,3 12,6 10,6 11,8 55 30 74 40 W 1000,0 4,8 0 0,2
12.12.2019 20:00:00 13,5 12,4 12,4 10,5 11,9 50 27 74 40 WNW 1000,6 5 0 1,2
12.12.2019 19:00:00 13,7 12,3 12,6 10,4 11,9 52 28 78 42 W 1000,2 7 0 0,0
12.12.2019 18:00:00 13,5 12,7 11,8 10,2 12,0 58 31 77 42 W 999,6 6 0 2,4
12.12.2019 17:00:00 12,1 11,9 10,4 10,2 12,0 65 35 93 50 WSW 999,1 1,6 0 2,8
12.12.2019 16:00:00 10,9 10,1 9,8 10,1 12,0 66 36 89 48 SW 999,8 2,7 0 2,0
12.12.2019 15:00:00 10,3 9,4 9,8 10,1 12,0 56 31 78 42 SSW 1001,6 3,2 0 2,0
12.12.2019 14:00:00 10,8 9,9 10,0 10,0 12,0 55 30 79 43 SW 1004,2 4,1 0 1,9
12.12.2019 13:00:00 11,0 9,7 10,0 10,0 12,0 61 33 78 42 WSW 1006,8 4,7 0 1,4
12.12.2019 12:00:00 10,7 9,5 9,8 9,9 12,0 49 26 61 33 WSW 1008,6 4,3 0 0,8
12.12.2019 11:00:00 10,6 9,0 9,5 9,8 12,0 44 24 65 35 W 1010,2 7 0 1,6
12.12.2019 10:00:00 11,2 10,1 9,7 9,8 12,0 48 26 62 34 WSW 1010,7 4,8 0 0,8
12.12.2019 09:00:00 10,5 9,6 9,1 9,8 12,0 21 12 28 15 W 1011,7 9 0 0,2
12.12.2019 08:00:00 10,0 8,6 8,8 9,8 12,0 22 12 37 20 W 1012,8 10 0 0,6
12.12.2019 07:00:00 9,9 8,0 8,9 9,8 12,0 30 16 42 23 W 1013,4 3,6 0 2,4
12.12.2019 06:00:00 11,2 8,1 9,6 9,8 12,0 35 19 50 27 W 1013,9 16 0 0,0
12.12.2019 05:00:00 11,4 7,9 9,4 9,8 12,0 32 18 42 23 W 1014,6 9 0 0,0
12.12.2019 04:00:00 11,1 7,6 8,8 9,8 12,0 32 17 52 28 W 1015,4 11 0 0,2
12.12.2019 03:00:00 11,7 6,4 10,4 9,8 12,0 37 20 56 30 W 1016,2 16 0 0,0
12.12.2019 02:00:00 11,7 6,2 10,5 9,9 12,0 36 20 54 29 WNW 1016,4 13 0 0,0
12.12.2019 01:00:00 11,7 5,3 10,5 10,0 12,0 44 24 64 35 WNW 1017,1 16 0 0,0
12.12.2019 00:00:00 11,8 5,4 10,8 10,0 12,0 45 24 62 33 WNW 1017,3 17 0 0,0
11.12.2019 23:00:00 11,8 5,2 10,8 10,1 12,0 47 25 64 34 WNW 1017,4 16 0 0,0
11.12.2019 22:00:00 12,0 4,9 10,9 10,1 12,0 52 28 69 38 WNW 1017,6 17 0 0,0
11.12.2019 21:00:00 11,9 5,5 10,7 10,2 12,0 54 29 75 40 WNW 1017,6 15 0 0,0
11.12.2019 20:00:00 11,6 5,9 10,5 10,3 12,0 54 29 74 40 WNW 1017,4 15 0 0,0
11.12.2019 19:00:00 11,6 7,5 8,5 10,3 12,0 55 30 - - W 1016,8 14 0 0,0
11.12.2019 18:00:00 10,9 6,2 8,7 10,3 12,0 68 37 - - W 1016,9 10 0 0,0
11.12.2019 17:00:00 11,6 7,3 8,8 10,3 12,0 - - - - - 1017,2 15 13 0,4
11.12.2019 16:00:00 11,5 6,0 11,3 10,3 12,0 45 24 77 42 W 1018,1 18 26 0,0
11.12.2019 15:00:00 12,0 6,1 11,9 10,3 12,0 47 26 68 37 W 1018,6 20 41 0,0
11.12.2019 14:00:00 12,2 6,5 9,7 10,2 12,0 50 27 61 33 W 1019,2 19 30 0,0
11.12.2019 13:00:00 10,7 5,4 7,9 10,2 12,0 40 22 74 40 WNW 1019,6 10 37 0,2
11.12.2019 12:00:00 11,5 6,6 8,7 10,1 12,0 48 26 67 36 W 1019,6 16 0 0,0
11.12.2019 11:00:00 10,4 7,6 8,8 10,1 12,0 41 22 61 33 WNW 1019,8 10 0 0,8
11.12.2019 10:00:00 10,3 8,6 9,2 10,1 12,0 47 25 76 41 WNW 1019,5 8 0 2,5
11.12.2019 09:00:00 10,8 9,9 10,2 10,0 12,0 45 24 59 32 NW 1018,2 6 0 2,4
11.12.2019 08:00:00 11,5 10,6 10,9 9,9 12,0 46 25 58 32 WNW 1017,3 6 0 1,4
11.12.2019 07:00:00 13,1 11,3 10,1 9,9 12,0 35 19 45 24 W 1016,8 13 0 0,0
11.12.2019 06:00:00 10,7 7,2 10,2 9,9 12,0 11 6 18 10 SSW 1016,7 15 0 0,0
11.12.2019 05:00:00 10,6 6,9 9,4 9,9 12,0 8 4 14 8 SSE 1016,7 20 0 0,0
11.12.2019 04:00:00 10,1 7,2 9,5 9,9 12,0 8 5 14 7 SE 1017,6 20 0 0,0
11.12.2019 03:00:00 10,6 7,1 9,9 9,9 12,0 8 4 14 8 SE 1018,3 20 0 0,0
11.12.2019 02:00:00 10,4 6,2 9,5 9,9 12,0 9 5 13 7 SSE 1019,1 20 0 0,0
11.12.2019 01:00:00 9,9 5,7 9,4 9,9 12,0 6 3 14 8 SE 1020,0 20 0 0,0
11.12.2019 00:00:00 9,7 5,9 9,3 10,0 12,0 9 5 20 11 SE 1020,5 20 0 0,0
10.12.2019 23:00:00 9,7 5,9 9,0 10,0 12,0 13 7 28 15 SE 1020,7 20 0 0,0
10.12.2019 22:00:00 9,7 5,9 9,0 10,2 12,1 13 7 26 14 SE 1021,3 20 0 0,0
10.12.2019 21:00:00 9,8 5,8 9,1 10,2 12,0 13 7 28 15 SE 1022,0 20 0 0,0
10.12.2019 20:00:00 10,2 6,7 9,1 10,3 12,0 13 7 23 12 SE 1022,5 20 0 0,0
10.12.2019 19:00:00 9,9 7,1 9,0 10,4 12,0 7 4 13 7 ESE 1023,1 20 0 0,0
10.12.2019 18:00:00 10,2 7,3 9,4 10,4 12,0 7 4 12 6 ESE 1023,6 20 0 0,0
10.12.2019 17:00:00 11,3 7,4 10,6 10,3 12,0 5 3 9 5 ESE 1024,2 20 0 0,0
10.12.2019 16:00:00 12,9 6,9 14,1 10,1 12,0 5 3 16 9 SE 1024,5 20 45 0,0
10.12.2019 15:00:00 13,9 6,3 14,6 10,1 12,0 5 3 16 9 SSE 1025,3 20 57 0,0
10.12.2019 14:00:00 13,3 7,3 15,7 9,9 12,0 9 5 18 10 S 1026,0 20 50 0,0
10.12.2019 13:00:00 12,8 7,7 14,5 9,8 12,0 6 4 19 11 SE 1027,4 17 53 0,0
10.12.2019 12:00:00 12,0 7,9 13,3 9,7 12,0 5 3 19 10 SE 1028,5 16 57 0,0
10.12.2019 11:00:00 10,9 7,4 9,4 9,7 12,0 9 5 23 13 SE 1029,5 17 60 0,0
10.12.2019 10:00:00 9,1 6,7 7,0 9,8 12,0 12 6 24 13 SE 1029,7 14 49 0,0
10.12.2019 09:00:00 7,7 6,0 6,7 9,9 12,0 12 6 22 12 ESE 1030,0 12 5 0,0
10.12.2019 08:00:00 7,8 5,9 6,8 10,1 12,0 8 5 17 9 ESE 1030,2 16 0 0,0
10.12.2019 07:00:00 8,4 4,4 7,5 10,2 12,0 9 5 17 9 ESE 1030,1 20 0 0,0
10.12.2019 06:00:00 8,7 5,4 8,0 10,3 12,0 9 5 18 10 ESE 1030,5 20 0 0,0
10.12.2019 05:00:00 8,9 6,0 8,0 10,4 12,0 8 4 15 8 ESE 1030,8 16 0 0,0
10.12.2019 04:00:00 9,0 5,7 8,0 10,5 12,0 9 5 15 8 ESE 1031,4 17 0 0,0
10.12.2019 03:00:00 8,7 6,1 7,8 10,5 12,0 5 3 9 5 E 1031,6 12 0 0,0
10.12.2019 02:00:00 8,8 7,4 7,7 10,6 11,9 4 2 9 5 E 1031,2 9 0 0,0
10.12.2019 01:00:00 10,1 7,5 8,5 10,6 11,9 3 1 32 18 ENE 1031,5 10 0 0,2
10.12.2019 00:00:00 11,2 8,1 9,6 10,6 12,0 22 12 41 22 NNW 1031,3 4,8 0 0,2
09.12.2019 23:00:00 11,5 8,0 9,7 10,7 12,0 24 13 37 20 NW 1030,9 7 0 0,0
09.12.2019 22:00:00 12,2 8,1 10,5 10,7 11,9 29 15 51 27 NNW 1031,0 8 0 0,0
09.12.2019 21:00:00 12,8 6,2 11,6 10,7 11,9 37 20 50 27 NW 1030,2 11 0 0,0
09.12.2019 20:00:00 12,6 6,8 11,2 10,8 11,9 40 21 61 33 NW 1029,3 11 0 0,0
09.12.2019 19:00:00 12,0 7,3 11,2 10,8 11,9 40 22 56 30 NW 1028,7 8 0 0,0
09.12.2019 18:00:00 12,6 4,8 11,5 10,9 11,9 48 26 63 34 NW 1028,2 13 0 0,0
09.12.2019 17:00:00 12,8 6,6 11,9 10,9 11,9 49 26 68 37 NW 1027,4 10 10 0,0
09.12.2019 16:00:00 13,0 7,4 12,6 10,9 11,9 52 28 74 40 NW 1026,5 9 25 0,0
09.12.2019 15:00:00 13,0 7,7 10,9 10,8 11,9 56 30 76 41 NW 1025,8 9 9 0,0
09.12.2019 14:00:00 12,8 7,5 12,2 10,8 11,9 55 30 74 40 WNW 1025,4 9 35 0,0
09.12.2019 13:00:00 13,2 6,8 10,3 10,7 11,9 56 30 82 44 NW 1025,3 10 24 0,0
09.12.2019 12:00:00 12,9 8,4 10,3 10,6 11,9 51 28 89 48 WNW 1025,0 7 8 0,6
09.12.2019 11:00:00 12,8 9,1 10,4 10,6 11,8 59 32 86 47 WNW 1024,6 9 18 0,0
09.12.2019 10:00:00 12,9 8,6 9,8 10,6 11,8 60 32 - - WNW 1023,8 9 0 0,0
09.12.2019 09:00:00 12,3 8,2 9,2 10,7 11,8 - - - - - 1023,0 8 0 0,0
09.12.2019 08:00:00 12,2 6,9 9,4 10,7 11,8 63 34 101 55 WNW 1022,2 10 0 0,4
09.12.2019 07:00:00 12,7 7,6 9,2 10,8 11,8 65 35 96 52 WNW 1021,6 9 0 0,8
09.12.2019 06:00:00 12,8 8,3 10,4 10,8 11,8 61 33 91 49 WNW 1021,1 9 0 0,0
09.12.2019 05:00:00 12,0 10,4 10,3 10,8 11,8 56 30 93 50 WNW 1020,9 4,8 0 2,0
09.12.2019 04:00:00 12,8 9,1 10,7 10,8 11,8 61 33 86 47 W 1021,1 8 0 0,2
09.12.2019 03:00:00 13,4 8,9 12,5 10,8 11,7 63 34 83 45 W 1021,5 9 0 0,0
09.12.2019 02:00:00 13,2 8,7 11,8 10,8 11,8 54 29 75 40 W 1021,5 10 0 0,0
09.12.2019 01:00:00 13,2 8,3 12,5 10,8 11,7 53 28 67 36 W 1022,2 12 0 0,0
09.12.2019 00:00:00 13,3 8,6 12,4 10,9 11,7 46 25 62 33 W 1022,4 12 0 0,0
08.12.2019 23:00:00 13,1 7,7 12,3 10,9 11,7 46 25 61 33 W 1022,5 13 0 0,0
08.12.2019 22:00:00 13,4 9,4 12,3 11,0 11,7 48 26 66 36 W 1022,8 11 0 0,0
08.12.2019 21:00:00 13,0 8,5 11,8 11,0 11,6 44 24 59 32 W 1022,9 13 0 0,0
08.12.2019 20:00:00 13,0 7,9 11,7 11,1 11,7 35 19 46 25 W 1022,2 12 0 0,0
08.12.2019 19:00:00 12,9 8,8 11,8 11,1 11,6 37 20 48 26 WNW 1021,8 12 0 0,0
08.12.2019 18:00:00 13,0 9,4 11,8 11,1 11,6 34 19 47 26 WNW 1020,8 11 0 0,0
08.12.2019 17:00:00 12,9 9,5 12,0 11,0 11,6 38 21 53 29 NW 1020,1 12 0 0,0
08.12.2019 16:00:00 13,6 13,4 13,0 10,9 11,6 34 18 48 26 WNW 1019,2 4,7 0 0,6
08.12.2019 15:00:00 13,2 12,9 12,6 10,8 11,6 40 22 49 26 WSW 1018,3 2,5 0 1,2
08.12.2019 14:00:00 12,9 12,4 12,5 10,6 11,6 37 20 45 24 SW 1018,7 2,9 0 1,6
08.12.2019 13:00:00 13,4 12,9 12,6 10,5 11,6 30 16 37 20 SW 1019,2 3,5 0 1,6
08.12.2019 12:00:00 12,9 12,1 12,1 10,4 11,6 23 12 33 18 SSW 1019,8 6 0 0,0
08.12.2019 11:00:00 12,5 10,9 11,8 10,4 11,5 22 12 30 16 SSW 1020,5 8 0 0,0
08.12.2019 10:00:00 11,8 9,4 10,8 10,3 11,5 15 8 26 14 S 1020,2 20 0 0,0
08.12.2019 09:00:00 11,3 9,6 10,3 10,4 11,5 13 7 26 14 S 1020,0 20 0 0,0
08.12.2019 08:00:00 10,9 10,0 10,0 10,4 11,5 12 6 23 12 S 1020,3 16 0 0,0
08.12.2019 07:00:00 10,7 9,9 9,9 10,5 11,5 11 6 17 9 SSE 1020,4 17 0 0,0
08.12.2019 06:00:00 11,0 10,5 9,9 10,6 11,5 10 5 16 9 S 1020,5 17 0 0,0
08.12.2019 05:00:00 11,5 11,0 10,5 10,5 11,5 8 4 16 9 SSE 1020,8 6 0 0,0
08.12.2019 04:00:00 12,9 12,4 12,1 10,5 11,5 15 8 24 13 SSW 1021,4 9 0 0,0
08.12.2019 03:00:00 12,6 12,0 11,5 10,5 11,4 19 10 25 14 SSW 1022,0 4,7 0 0,0
08.12.2019 02:00:00 11,8 10,7 11,3 10,5 11,4 10 6 18 10 S 1022,3 7 0 0,0

tt = temperature
td = dewpoint
tt 5cm = temperature 5cm
tt -20cm = temperature -20cm
tt -100cm = temperature -100cm
ff = wind speed
fx = gusts
dd = wind direction
ppp = reduced air pressure
vv = visibility
sd = sunshine duration
rr = precipitation

Next stations